CW8968 Weather Reports


Display with metric or nautical units.
time (UTC)temp
F
wind
direction
speed
MPH
gust
MPH
rain 1hr
in
rain 24hr
in
rain mn
in
humidity
%
barometer
mb
20260503173553 60 232 4.0 12.0 0.00 0.60 0.60 96
20260503173050 60 236 3.0 12.0 0.00 0.60 0.60 96
20260503172545 60 198 3.0 9.0 0.00 0.60 0.60 96
20260503172033 60 191 3.0 9.0 0.00 0.60 0.60 96
20260503171529 60 213 2.0 8.0 0.00 0.60 0.60 96
20260503171254 60 242 2.0 8.0 0.00 0.60 0.60 97
20260503170517 60 243 3.0 9.0 0.00 0.60 0.60 96
20260503150926 60 233 4.0 16.0 0.51 0.57 0.57 94
20260503150420 60 228 5.0 18.0 0.55 0.57 0.57 94
20260503140308 66 229 5.0 14.0 0.00 0.00 0.01 85
20260503131203 67 306 11.0 27.0 0.00 0.00 0.00 77
20260503130703 68 208 11.0 27.0 0.00 0.00 0.00 77
20260503130150 69 212 11.0 30.0 0.00 0.00 0.00 75
20260503110437 72 209 5.0 17.0 0.00 0.00 0.00 73
20260503110157 72 158 6.0 18.0 0.00 0.00 0.00 72
20260503090212 70 130 6.0 21.0 0.00 0.00 0.00 72
20260503081104 69 171 6.0 18.0 0.00 0.00 0.00 74
20260503080551 69 117 5.0 22.0 0.00 0.00 0.00 77
20260503072504 64 152 3.0 12.0 0.00 0.00 0.00 86
20260503072229 64 147 4.0 16.0 0.00 0.00 0.00 87
20260503071453 63 152 2.0 16.0 0.00 0.00 0.00 88
20260503070947 63 146 2.0 9.0 0.00 0.00 0.00 90
20260503070441 62 144 2.0 9.0 0.00 0.00 0.00 90
20260503070201 62 137 2.0 7.0 0.00 0.00 0.00 91
20260503060327 59 169 1.0 9.0 0.00 0.00 0.00 96
20260503054808 58 244 0.0 4.0 0.00 0.00 0.00 96
20260503054302 58 244 0.0 0.0 0.00 0.00 0.00 96
20260503053800 58 244 1.0 6.0 0.00 0.00 0.00 96
20260503053303 58 244 1.0 6.0 0.00 0.00 0.00 96
20260503052800 58 244 0.0 4.0 0.00 0.00 0.00 96
20260503052259 58 163 0.0 4.0 0.00 0.00 0.00 96
20260503052029 58 163 0.0 4.0 0.00 0.00 0.00 96
20260503051529 58 163 0.0 0.0 0.00 0.00 0.00 96
20260503051025 58 163 0.0 0.0 0.00 0.00 0.00 96
20260503050254 58 163 0.0 4.0 0.00 0.00 0.00 96
20260503045750 58 163 1.0 4.0 0.00 0.00 0.00 96
20260503045250 58 162 0.0 4.0 0.00 0.00 0.00 96
20260503044751 58 176 0.0 2.0 0.00 0.00 0.00 96
20260503044252 57 176 0.0 6.0 0.00 0.00 0.00 96
20260503043751 57 176 0.0 6.0 0.00 0.00 0.00 96
20260503043251 57 215 0.0 0.0 0.00 0.00 0.00 95
20260503042749 57 215 0.0 0.0 0.00 0.00 0.00 95
20260503042248 57 215 0.0 0.0 0.00 0.00 0.00 95
20260503042013 57 215 0.0 0.0 0.00 0.00 0.00 95
20260503041235 57 215 0.0 0.0 0.00 0.00 0.00 95
20260503040726 57 215 0.0 0.0 0.00 0.00 0.00 94
20260503040220 57 215 0.0 0.0 0.00 0.00 0.00 94
20260503035718 57 215 0.0 0.0 0.00 0.00 0.00 94
20260503035218 57 215 0.0 0.0 0.00 0.00 0.00 94
20260503034715 57 215 0.0 0.0 0.00 0.00 0.00 94
20260503034447 57 215 0.0 0.0 0.00 0.00 0.00 94
20260503033704 58 215 0.0 0.0 0.00 0.00 0.00 94
20260503033206 58 215 0.0 0.0 0.00 0.00 0.00 93
20260503032704 58 215 1.0 5.0 0.00 0.00 0.00 93
20260503032204 58 215 1.0 5.0 0.00 0.00 0.00 93
20260503031935 58 213 0.0 0.0 0.00 0.00 0.00 93
20260503031206 58 213 0.0 0.0 0.00 0.00 0.00 93
20260503030705 58 213 0.0 1.0 0.00 0.00 0.00 93
20260503030205 59 213 0.0 5.0 0.00 0.00 0.00 93
20260503025704 59 213 0.0 5.0 0.00 0.00 0.00 93
20260503025200 59 213 0.0 0.0 0.00 0.00 0.00 93
20260503024648 59 213 0.0 0.0 0.00 0.00 0.00 93
20260503024420 59 213 0.0 0.0 0.00 0.00 0.00 93
20260503024408 59 213 1.0 18.0 0.00 0.00 0.00 93
20260503023148 59 213 2.0 18.0 0.00 0.00 0.00 93
20260503022919 59 144 4.0 18.0 0.00 0.00 0.00 93
20260503022150 59 160 5.0 18.0 0.00 0.00 0.00 93
20260503021649 59 215 5.0 18.0 0.00 0.00 0.00 94
20260503021149 59 181 4.0 12.0 0.00 0.00 0.00 94
20260503020648 58 185 3.0 12.0 0.00 0.00 0.00 94
20260503020144 58 184 3.0 10.0 0.00 0.00 0.00 94
20260503015646 58 189 1.0 7.0 0.00 0.00 0.00 94
20260503015145 58 161 0.0 6.0 0.00 0.00 0.00 94
20260503014644 58 160 0.0 7.0 0.00 0.00 0.00 95
20260503014144 57 160 0.0 7.0 0.00 0.00 0.00 94
20260503013646 57 161 0.0 7.0 0.00 0.00 0.00 94
20260503013415 57 161 1.0 8.0 0.00 0.00 0.00 94
20260503012644 57 160 1.0 8.0 0.00 0.00 0.00 94
20260503012145 56 43 2.0 6.0 0.00 0.00 0.00 93
20260503012140 56 43 1.0 6.0 0.00 0.00 0.00 93
20260503011358 56 43 0.0 0.0 0.00 0.00 0.00 92
20260503010615 56 43 0.0 0.0 0.00 0.00 0.00 92
20260503010107 56 43 0.0 0.0 0.00 0.00 0.00 92
20260503005600 56 43 2.0 6.0 0.00 0.00 0.00 92
20260503005100 56 43 2.0 6.0 0.00 0.00 0.00 92
20260503004559 56 43 0.0 4.0 0.00 0.00 0.00 91
20260503004059 56 43 2.0 6.0 0.00 0.00 0.00 91
20260503003831 56 43 3.0 6.0 0.00 0.00 0.00 91
20260503003058 57 43 2.0 5.0 0.00 0.00 0.00 91
20260503002600 57 43 1.0 4.0 0.00 0.00 0.00 91
20260503002058 57 43 0.0 0.0 0.00 0.00 0.00 91
20260503001552 57 43 0.0 0.0 0.00 0.00 0.00 90
20260503001040 57 43 0.0 0.0 0.00 0.00 0.00 90
20260503000530 57 43 0.0 0.0 0.00 0.00 0.00 90
20260503000031 57 43 0.0 0.0 0.00 0.00 0.00 90
20260503000026 57 43 0.0 0.0 0.00 0.00 0.00 90
20260502235025 57 43 0.0 0.0 0.00 0.00 0.00 90
20260502234523 58 43 0.0 0.0 0.00 0.00 0.00 90
20260502234022 58 43 0.0 0.0 0.00 0.00 0.00 90
20260502233521 58 43 1.0 5.0 0.00 0.00 0.00 90
20260502233252 58 43 1.0 5.0 0.00 0.00 0.00 90
20260502232753 58 43 2.0 5.0 0.00 0.00 0.00 90
20260502232020 58 43 4.0 8.0 0.00 0.00 0.00 90
20260502231521 58 43 6.0 9.0 0.00 0.00 0.00 90
20260502231020 58 44 7.0 12.0 0.00 0.00 0.00 90
20260502230523 58 37 9.0 14.0 0.00 0.00 0.00 90
20260502230018 59 38 9.0 14.0 0.00 0.00 0.00 91
20260502225518 59 38 10.0 16.0 0.00 0.00 0.00 91
20260502225017 59 46 12.0 20.0 0.00 0.00 0.00 91
20260502224516 59 44 12.0 20.0 0.00 0.00 0.00 91
20260502224018 60 46 11.0 19.0 0.00 0.00 0.00 91
20260502223517 60 41 12.0 19.0 0.00 0.00 0.00 91
20260502223016 60 39 11.0 20.0 0.00 0.00 0.00 91
20260502222515 60 36 10.0 20.0 0.00 0.00 0.00 91
20260502222018 60 38 9.0 14.0 0.00 0.00 0.00 91
20260502221515 60 36 8.0 12.0 0.00 0.00 0.00 90
20260502221013 60 42 8.0 12.0 0.00 0.00 0.00 92
20260502220513 61 42 8.0 14.0 0.00 0.00 0.00 90
20260502220014 60 54 5.0 14.0 0.00 0.00 0.00 90
20260502215513 60 71 3.0 11.0 0.00 0.00 0.00 91
20260502215013 60 68 4.0 13.0 0.00 0.00 0.00 91
20260502214509 60 154 7.0 13.0 0.00 0.00 0.00 90
20260502214004 60 60 8.0 13.0 0.00 0.00 0.00 90
20260502213450 60 49 7.0 13.0 0.00 0.00 0.00 90
20260502212949 60 51 7.0 10.0 0.00 0.00 0.00 90
20260502212944 60 49 7.0 11.0 0.00 0.00 0.00 89
20260502211936 60 49 7.0 11.0 0.00 0.00 0.00 89
20260502211430 60 49 7.0 12.0 0.00 0.00 0.00 89
20260502210921 60 48 7.0 10.0 0.00 0.00 0.00 88
20260502210420 60 50 6.0 10.0 0.00 0.00 0.00 87
20260502205913 60 35 6.0 10.0 0.00 0.00 0.00 87
20260502205407 60 24 6.0 10.0 0.00 0.00 0.00 87
20260502204902 61 10 7.0 10.0 0.00 0.00 0.00 86
20260502204354 61 10 6.0 9.0 0.00 0.00 0.00 86
20260502203848 61 9 5.0 9.0 0.00 0.00 0.00 86
20260502203342 61 9 4.0 7.0 0.00 0.00 0.00 85
20260502202835 61 9 5.0 8.0 0.00 0.00 0.00 85
20260502202329 61 5 4.0 8.0 0.00 0.00 0.00 85
20260502201824 61 5 2.0 7.0 0.00 0.00 0.00 85
20260502201317 61 5 1.0 6.0 0.00 0.00 0.00 85
20260502200812 61 5 0.0 3.0 0.00 0.00 0.00 84
20260502200301 61 5 0.0 3.0 0.00 0.00 0.00 84
20260502195758 62 5 0.0 0.0 0.00 0.00 0.00 82
20260502195253 62 5 0.0 1.0 0.00 0.00 0.00 82
20260502194748 62 5 0.0 1.0 0.00 0.00 0.00 81
20260502194243 63 5 0.0 0.0 0.00 0.00 0.00 80
20260502193735 63 5 0.0 5.0 0.00 0.00 0.00 80
20260502193230 63 5 1.0 8.0 0.00 0.00 0.00 80
20260502192719 64 5 1.0 8.0 0.00 0.00 0.00 79
20260502192219 64 290 0.0 2.0 0.00 0.00 0.00 77
20260502191711 65 289 0.0 0.0 0.00 0.00 0.00 76
20260502191206 66 289 0.0 0.0 0.00 0.00 0.00 75
20260502190659 67 289 0.0 0.0 0.00 0.00 0.00 75
20260502190421 67 289 0.0 2.0 0.00 0.00 0.00 74
20260502185648 68 290 0.0 2.0 0.00 0.00 0.00 73
20260502185141 68 288 0.0 5.0 0.00 0.00 0.00 73
20260502184635 69 288 0.0 5.0 0.00 0.00 0.00 72
20260502184130 69 288 0.0 6.0 0.00 0.00 0.00 71
20260502183624 69 287 0.0 6.0 0.00 0.00 0.00 70
20260502183117 70 288 0.0 2.0 0.00 0.00 0.00 69
20260502182611 70 287 0.0 4.0 0.00 0.00 0.00 68
20260502182105 71 287 0.0 4.0 0.00 0.00 0.00 67
20260502181600 71 276 1.0 5.0 0.00 0.00 0.00 67
20260502181053 72 262 1.0 5.0 0.00 0.00 0.00 66
20260502180547 72 269 0.0 5.0 0.00 0.00 0.00 65